Tracking 19489 objects as of 22-Jan-2019
HD Live streaming from Space Station
objects crossing your sky now

FENGYUN 1C DEB

Track FENGYUN 1C DEB now!
10-day predictions


NORAD ID: 30320
Int'l Code: 1999-025AAH
Perigee: 848.0 km
Apogee: 973.8 km
Inclination: 99.4 °
Period: 103.1 minutes
Semi major axis: 7281 km
RCS: 0.0266 m2 (small)
Launch date: May 10, 1999
Source: People's Republic of China (PRC)
Launch site: Taiyaun Space Center, China (TSC)

Note: This is SATELLITE DEBRIS
aabbcc
Your satellite tracking list
Your tracking list is empty




NASA's NSSDC Master Catalog

Two Line Element Set (TLE):
1 30320U 99025AAH 19021.53597037 -.00000034 +00000-0 +88638-5 0  9991
2 30320 099.3644 010.1909 0086359 312.2620 166.6963 13.97124448612461
Source of the keplerian elements: AFSPC